Location: Les Moreaux
(47.2278°N, 1.4966°E)
Time: 23:30:32
(UTC+00:00)

CZ-4C R/B - Pass Details

Date: 18 May 2026
Orbit: 409 x 496 km, 98.0° (Epoch: 7 June)

Event Time Altitude Azimuth Distance (km) Brightness Sun altitude
Rises 23:30:28 0° 32° (NNE) 2,488 7.5 -22.9°
Reaches altitude 10° 23:33:18 10° 59° (ENE) 1,628 6.0 -22.9°
Enters shadow 23:34:32 14° 79° (E) 1,431 5.5 -23.0°
